| time (UTC) | temp C | wind direction | speed KPH | gust KPH | rain 1hr cm | rain 24hr cm | rain mn cm | humidity % | barometer mb |
| 20260506015009 | 0 | 83 | 0.0 | 0.0 | 0.00 | 0.00 | 0.00 | 89 | 1011.9 |
| 20260506014509 | 0 | 83 | 0.0 | 0.0 | 0.00 | 0.00 | 0.00 | 89 | 1011.8 |
| 20260506014227 | 0 | 83 | 0.0 | 0.0 | 0.00 | 0.00 | 0.00 | 89 | 1011.8 |
| 20260506013509 | 0 | 83 | 0.0 | 0.0 | 0.00 | 0.00 | 0.00 | 89 | 1011.8 |
| 20260506013009 | 1 | 83 | 0.0 | 0.0 | 0.00 | 0.00 | 0.00 | 89 | 1011.7 |
| 20260506012508 | 1 | 83 | 0.0 | 0.0 | 0.00 | 0.00 | 0.00 | 89 | 1011.7 |
| 20260506012008 | 1 | 83 | 0.0 | 0.0 | 0.00 | 0.00 | 0.00 | 88 | 1011.6 |
| 20260506011739 | 1 | 83 | 0.0 | 0.0 | 0.00 | 0.00 | 0.00 | 89 | 1011.5 |
| 20260506011008 | 1 | 83 | 0.0 | 0.0 | 0.00 | 0.00 | 0.00 | 89 | 1011.5 |
| 20260506010947 | 1 | 83 | 0.0 | 0.0 | 0.00 | 0.00 | 0.00 | 90 | 1011.5 |
| 20260506010008 | 1 | 83 | 0.0 | 0.0 | 0.00 | 0.00 | 0.00 | 90 | 1011.3 |
| 20260506005506 | 1 | 83 | 0.0 | 0.0 | 0.00 | 0.00 | 0.00 | 91 | 1011.2 |
| 20260506005005 | 1 | 83 | 0.0 | 0.0 | 0.00 | 0.00 | 0.00 | 91 | 1011.3 |
| 20260506004505 | 1 | 83 | 0.0 | 0.0 | 0.00 | 0.00 | 0.00 | 91 | 1011.2 |
| 20260506004228 | 1 | 83 | 0.0 | 0.0 | 0.00 | 0.00 | 0.00 | 91 | 1011.2 |
| 20260506003506 | 1 | 83 | 0.0 | 0.0 | 0.00 | 0.00 | 0.00 | 91 | 1011.2 |
| 20260506003005 | 1 | 83 | 0.0 | 0.0 | 0.00 | 0.00 | 0.00 | 91 | 1011.2 |
| 20260506002505 | 1 | 83 | 0.0 | 0.0 | 0.00 | 0.00 | 0.00 | 90 | 1011.1 |
| 20260506002005 | 1 | 83 | 0.0 | 0.0 | 0.00 | 0.00 | 0.00 | 90 | 1011.1 |
| 20260506001505 | 1 | 83 | 0.0 | 0.0 | 0.00 | 0.00 | 0.00 | 90 | 1011.1 |
| 20260506001005 | 1 | 83 | 0.0 | 0.0 | 0.00 | 0.00 | 0.00 | 90 | 1011.0 |
| 20260506000504 | 1 | 83 | 0.0 | 0.0 | 0.00 | 0.00 | 0.00 | 90 | 1011.0 |
| 20260506000006 | 1 | 83 | 0.0 | 0.0 | 0.00 | 0.00 | 0.00 | 90 | 1011.0 |
| 20260505235504 | 1 | 83 | 0.0 | 0.0 | 0.00 | 0.00 | 0.00 | 89 | 1011.0 |
| 20260505235004 | 1 | 83 | 0.0 | 0.0 | 0.00 | 0.00 | 0.00 | 89 | 1010.9 |
| 20260505234504 | 2 | 83 | 0.0 | 0.0 | 0.00 | 0.00 | 0.00 | 89 | 1010.9 |
| 20260505234004 | 2 | 83 | 0.0 | 0.0 | 0.00 | 0.00 | 0.00 | 90 | 1011.0 |
| 20260505233503 | 2 | 83 | 0.0 | 0.0 | 0.00 | 0.00 | 0.00 | 89 | 1010.9 |
| 20260505233004 | 2 | 83 | 0.0 | 1.6 | 0.00 | 0.00 | 0.00 | 89 | 1010.9 |
| 20260505232504 | 2 | 83 | 0.0 | 1.6 | 0.00 | 0.00 | 0.00 | 89 | 1010.9 |
| 20260505232003 | 2 | 83 | 0.0 | 0.0 | 0.00 | 0.00 | 0.00 | 89 | 1010.8 |
| 20260505231504 | 2 | 83 | 0.0 | 1.6 | 0.00 | 0.00 | 0.00 | 89 | 1010.8 |
| 20260505231004 | 2 | 83 | 0.0 | 1.6 | 0.00 | 0.00 | 0.00 | 88 | 1010.7 |
| 20260505230725 | 2 | 83 | 0.0 | 0.0 | 0.00 | 0.00 | 0.00 | 89 | 1010.8 |
| 20260505230016 | 2 | 83 | 0.0 | 0.0 | 0.00 | 0.00 | 0.00 | 88 | 1010.7 |
| 20260505225504 | 3 | 83 | 0.0 | 0.0 | 0.00 | 0.00 | 0.00 | 88 | 1010.7 |
| 20260505225005 | 3 | 83 | 0.0 | 0.0 | 0.00 | 0.00 | 0.00 | 87 | 1010.7 |
| 20260505224505 | 3 | 83 | 0.0 | 0.0 | 0.00 | 0.00 | 0.00 | 88 | 1010.7 |
| 20260505224004 | 3 | 83 | 0.0 | 0.0 | 0.00 | 0.00 | 0.00 | 87 | 1010.7 |
| 20260505223504 | 3 | 83 | 0.0 | 0.0 | 0.00 | 0.00 | 0.00 | 87 | 1010.7 |
| 20260505223005 | 3 | 83 | 0.0 | 0.0 | 0.00 | 0.00 | 0.00 | 87 | 1010.6 |
| 20260505222504 | 3 | 83 | 0.0 | 0.0 | 0.00 | 0.00 | 0.00 | 86 | 1010.6 |
| 20260505222004 | 3 | 83 | 0.0 | 1.6 | 0.00 | 0.00 | 0.00 | 86 | 1010.5 |
| 20260505221504 | 3 | 83 | 0.0 | 3.2 | 0.00 | 0.00 | 0.00 | 87 | 1010.6 |
| 20260505221004 | 3 | 83 | 3.2 | 3.2 | 0.00 | 0.00 | 0.00 | 86 | 1010.5 |
| 20260505220504 | 3 | 83 | 0.0 | 3.2 | 0.00 | 0.00 | 0.00 | 86 | 1010.5 |
| 20260505220004 | 3 | 83 | 1.6 | 3.2 | 0.00 | 0.00 | 0.00 | 86 | 1010.4 |
| 20260505215728 | 3 | 83 | 0.0 | 3.2 | 0.00 | 0.00 | 0.00 | 85 | 1010.4 |
| 20260505215004 | 3 | 83 | 3.2 | 3.2 | 0.00 | 0.00 | 0.00 | 86 | 1010.4 |
| 20260505214504 | 3 | 83 | 1.6 | 3.2 | 0.00 | 0.00 | 0.00 | 86 | 1010.4 |
| 20260505214003 | 3 | 83 | 0.0 | 0.0 | 0.00 | 0.00 | 0.00 | 86 | 1010.4 |
| 20260505213504 | 3 | 83 | 0.0 | 0.0 | 0.00 | 0.00 | 0.00 | 85 | 1010.4 |
| 20260505213004 | 3 | 83 | 0.0 | 0.0 | 0.00 | 0.00 | 0.00 | 85 | 1010.3 |
| 20260505212719 | 3 | 83 | 0.0 | 1.6 | 0.00 | 0.00 | 0.00 | 84 | 1010.3 |
| 20260505212002 | 3 | 83 | 0.0 | 3.2 | 0.00 | 0.00 | 0.00 | 84 | 1010.3 |
| 20260505211502 | 4 | 83 | 1.6 | 3.2 | 0.00 | 0.00 | 0.00 | 84 | 1010.2 |
| 20260505211002 | 4 | 83 | 0.0 | 3.2 | 0.00 | 0.00 | 0.00 | 84 | 1010.2 |
| 20260505210503 | 4 | 83 | 0.0 | 1.6 | 0.00 | 0.00 | 0.00 | 84 | 1010.3 |
| 20260505210225 | 4 | 83 | 0.0 | 0.0 | 0.00 | 0.00 | 0.00 | 83 | 1010.2 |
| 20260505205503 | 4 | 83 | 0.0 | 0.0 | 0.00 | 0.00 | 0.00 | 83 | 1010.2 |
| 20260505205004 | 5 | 83 | 0.0 | 0.0 | 0.00 | 0.00 | 0.00 | 84 | 1010.1 |
| 20260505204504 | 4 | 83 | 0.0 | 1.6 | 0.00 | 0.00 | 0.00 | 83 | 1010.1 |
| 20260505204003 | 4 | 83 | 0.0 | 1.6 | 0.00 | 0.00 | 0.00 | 82 | 1010.0 |
| 20260505203504 | 5 | 83 | 0.0 | 0.0 | 0.00 | 0.00 | 0.00 | 82 | 1009.9 |
| 20260505203005 | 5 | 83 | 0.0 | 0.0 | 0.00 | 0.00 | 0.00 | 81 | 1009.8 |
| 20260505202505 | 5 | 83 | 0.0 | 0.0 | 0.00 | 0.00 | 0.00 | 81 | 1009.8 |
| 20260505202001 | 5 | 83 | 0.0 | 0.0 | 0.00 | 0.00 | 0.00 | 81 | 1009.7 |
| 20260505201456 | 5 | 83 | 0.0 | 0.0 | 0.00 | 0.00 | 0.00 | 80 | 1009.7 |
| 20260505200949 | 5 | 83 | 0.0 | 0.0 | 0.00 | 0.00 | 0.00 | 80 | 1009.7 |
| 20260505200709 | 6 | 83 | 0.0 | 1.6 | 0.00 | 0.00 | 0.00 | 80 | 1009.6 |
| 20260505195944 | 6 | 83 | 0.0 | 3.2 | 0.00 | 0.00 | 0.00 | 79 | 1009.7 |
| 20260505195432 | 6 | 83 | 1.6 | 3.2 | 0.00 | 0.00 | 0.00 | 79 | 1009.6 |
| 20260505194928 | 6 | 83 | 1.6 | 4.8 | 0.00 | 0.00 | 0.00 | 79 | 1009.6 |
| 20260505194406 | 6 | 83 | 3.2 | 6.4 | 0.00 | 0.00 | 0.00 | 79 | 1009.5 |
| 20260505194344 | 6 | 83 | 3.2 | 6.4 | 0.00 | 0.00 | 0.00 | 79 | 1009.4 |
| 20260505193404 | 6 | 82 | 3.2 | 6.4 | 0.00 | 0.00 | 0.00 | 79 | 1009.4 |
| 20260505192904 | 6 | 82 | 3.2 | 6.4 | 0.00 | 0.00 | 0.00 | 78 | 1009.3 |
| 20260505192403 | 6 | 82 | 4.8 | 6.4 | 0.00 | 0.00 | 0.00 | 78 | 1009.3 |
| 20260505191903 | 6 | 82 | 3.2 | 6.4 | 0.00 | 0.00 | 0.00 | 78 | 1009.2 |
| 20260505191404 | 6 | 82 | 3.2 | 9.7 | 0.00 | 0.00 | 0.00 | 78 | 1009.2 |
| 20260505190903 | 7 | 61 | 3.2 | 11.3 | 0.00 | 0.00 | 0.00 | 78 | 1009.1 |
| 20260505190403 | 7 | 73 | 8.0 | 11.3 | 0.00 | 0.00 | 0.00 | 77 | 1009.1 |
| 20260505185903 | 7 | 39 | 8.0 | 11.3 | 0.00 | 0.00 | 0.00 | 76 | 1009.1 |
| 20260505185403 | 7 | 86 | 8.0 | 16.1 | 0.00 | 0.00 | 0.00 | 73 | 1009.0 |
| 20260505184903 | 7 | 58 | 11.3 | 17.7 | 0.00 | 0.00 | 0.00 | 69 | 1008.9 |
| 20260505184403 | 8 | 71 | 12.9 | 17.7 | 0.00 | 0.00 | 0.00 | 47 | 1008.8 |
| 20260505184125 | 8 | 347 | 1.6 | 6.4 | 0.00 | 0.00 | 0.00 | 43 | 1008.7 |
| 20260505183403 | 9 | 344 | 3.2 | 8.0 | 0.00 | 0.00 | 0.00 | 42 | 1008.7 |
| 20260505182903 | 9 | 312 | 3.2 | 8.0 | 0.00 | 0.00 | 0.00 | 42 | 1008.6 |
| 20260505182404 | 9 | 317 | 4.8 | 9.7 | 0.00 | 0.00 | 0.00 | 41 | 1008.5 |
| 20260505181904 | 9 | 317 | 4.8 | 11.3 | 0.00 | 0.00 | 0.00 | 41 | 1008.5 |
| 20260505181404 | 9 | 334 | 6.4 | 11.3 | 0.00 | 0.00 | 0.00 | 40 | 1008.4 |
| 20260505181123 | 9 | 310 | 8.0 | 14.5 | 0.00 | 0.00 | 0.00 | 40 | 1008.3 |
| 20260505180403 | 9 | 300 | 6.4 | 14.5 | 0.00 | 0.00 | 0.00 | 39 | 1008.3 |
| 20260505175903 | 9 | 323 | 8.0 | 11.3 | 0.00 | 0.00 | 0.00 | 39 | 1008.3 |
| 20260505175404 | 9 | 307 | 6.4 | 16.1 | 0.00 | 0.00 | 0.00 | 39 | 1008.2 |
| 20260505174904 | 9 | 293 | 6.4 | 16.1 | 0.00 | 0.00 | 0.00 | 39 | 1008.2 |
| 20260505174403 | 9 | 326 | 6.4 | 17.7 | 0.00 | 0.00 | 0.00 | 39 | 1008.1 |
| 20260505173903 | 9 | 307 | 12.9 | 17.7 | 0.00 | 0.00 | 0.00 | 39 | 1008.1 |
| 20260505173626 | 10 | 288 | 8.0 | 16.1 | 0.00 | 0.00 | 0.00 | 38 | 1008.0 |
| 20260505173128 | 10 | 275 | 6.4 | 11.3 | 0.00 | 0.00 | 0.00 | 39 | 1008.0 |
| 20260505172403 | 10 | 320 | 9.7 | 16.1 | 0.00 | 0.00 | 0.00 | 39 | 1007.9 |
| 20260505171903 | 10 | 290 | 9.7 | 16.1 | 0.00 | 0.00 | 0.00 | 37 | 1007.9 |
| 20260505171403 | 10 | 289 | 4.8 | 9.7 | 0.00 | 0.00 | 0.00 | 37 | 1007.8 |
| 20260505170903 | 10 | 285 | 6.4 | 16.1 | 0.00 | 0.00 | 0.00 | 37 | 1007.9 |
| 20260505170404 | 10 | 282 | 4.8 | 16.1 | 0.00 | 0.00 | 0.00 | 37 | 1007.8 |
| 20260505165904 | 10 | 303 | 6.4 | 16.1 | 0.00 | 0.00 | 0.00 | 37 | 1007.8 |
| 20260505165403 | 10 | 299 | 6.4 | 16.1 | 0.00 | 0.00 | 0.00 | 37 | 1007.8 |
| 20260505164903 | 10 | 293 | 8.0 | 14.5 | 0.00 | 0.00 | 0.00 | 36 | 1007.8 |
| 20260505164403 | 10 | 306 | 8.0 | 14.5 | 0.00 | 0.00 | 0.00 | 37 | 1007.8 |
| 20260505163903 | 10 | 314 | 8.0 | 14.5 | 0.00 | 0.00 | 0.00 | 36 | 1007.7 |
| 20260505163403 | 10 | 293 | 4.8 | 22.5 | 0.00 | 0.00 | 0.00 | 37 | 1007.7 |
| 20260505163129 | 10 | 292 | 8.0 | 22.5 | 0.00 | 0.00 | 0.00 | 36 | 1007.7 |
| 20260505162404 | 10 | 313 | 8.0 | 19.3 | 0.00 | 0.00 | 0.00 | 37 | 1007.7 |
| 20260505161904 | 10 | 313 | 9.7 | 19.3 | 0.00 | 0.00 | 0.00 | 35 | 1007.7 |
| 20260505161404 | 10 | 290 | 9.7 | 16.1 | 0.00 | 0.00 | 0.00 | 35 | 1007.7 |
| 20260505160903 | 10 | 326 | 8.0 | 20.9 | 0.00 | 0.00 | 0.00 | 35 | 1007.6 |
| 20260505160404 | 11 | 314 | 8.0 | 20.9 | 0.00 | 0.00 | 0.00 | 35 | 1007.7 |
| 20260505160127 | 11 | 316 | 9.7 | 19.3 | 0.00 | 0.00 | 0.00 | 34 | 1007.6 |
| 20260505152902 | 11 | 0 | 6.4 | 17.7 | 0.00 | 0.00 | 0.00 | 34 | 1007.3 |
| 20260505152625 | 11 | 288 | 4.8 | 16.1 | 0.00 | 0.00 | 0.00 | 34 | 1007.4 |
| 20260505151903 | 10 | 316 | 9.7 | 16.1 | 0.00 | 0.00 | 0.00 | 35 | 1007.4 |
| 20260505151403 | 11 | 286 | 9.7 | 19.3 | 0.00 | 0.00 | 0.00 | 34 | 1007.3 |
| 20260505150903 | 11 | 292 | 16.1 | 22.5 | 0.00 | 0.00 | 0.00 | 33 | 1007.3 |
| 20260505150404 | 11 | 357 | 9.7 | 25.7 | 0.00 | 0.00 | 0.00 | 33 | 1007.3 |
| 20260505150123 | 11 | 274 | 9.7 | 25.7 | 0.00 | 0.00 | 0.00 | 34 | 1007.3 |
| 20260505140403 | 11 | 319 | 9.7 | 20.9 | 0.00 | 0.00 | 0.00 | 36 | 1007.2 |
| 20260505124905 | 10 | 310 | 16.1 | 24.1 | 0.00 | 0.00 | 0.00 | 37 | 1007.1 |
| 20260505124631 | 10 | 269 | 9.7 | 24.1 | 0.00 | 0.00 | 0.00 | 36 | 1007.0 |
| 20260505123905 | 11 | 290 | 16.1 | 24.1 | 0.00 | 0.00 | 0.00 | 36 | 1007.1 |
| 20260505123401 | 11 | 296 | 12.9 | 20.9 | 0.00 | 0.00 | 0.00 | 34 | 1007.1 |
| 20260505122902 | 11 | 299 | 9.7 | 24.1 | 0.00 | 0.00 | 0.00 | 35 | 1007.0 |
| 20260505122626 | 11 | 298 | 12.9 | 24.1 | 0.00 | 0.00 | 0.00 | 35 | 1007.2 |
| 20260505121902 | 11 | 319 | 16.1 | 24.1 | 0.00 | 0.00 | 0.00 | 36 | 1007.0 |
| 20260505121402 | 11 | 313 | 11.3 | 22.5 | 0.00 | 0.00 | 0.00 | 36 | 1007.0 |
| 20260505120902 | 11 | 314 | 12.9 | 27.4 | 0.00 | 0.00 | 0.00 | 38 | 1006.9 |
| 20260505120620 | 10 | 329 | 12.9 | 27.4 | 0.00 | 0.00 | 0.00 | 38 | 1006.9 |
| 20260505115903 | 10 | 314 | 14.5 | 27.4 | 0.00 | 0.00 | 0.00 | 38 | 1007.0 |
| 20260505115623 | 10 | 309 | 12.9 | 27.4 | 0.00 | 0.00 | 0.00 | 39 | 1006.9 |
| 20260505114902 | 10 | 336 | 17.7 | 27.4 | 0.00 | 0.00 | 0.00 | 40 | 1006.9 |
| 20260505114402 | 10 | 303 | 14.5 | 33.8 | 0.00 | 0.00 | 0.00 | 42 | 1006.8 |
| 20260505114123 | 10 | 302 | 20.9 | 33.8 | 0.00 | 0.00 | 0.00 | 41 | 1006.9 |
| 20260505113623 | 10 | 319 | 17.7 | 25.7 | 0.00 | 0.00 | 0.00 | 39 | 1006.9 |
| 20260505112902 | 10 | 283 | 11.3 | 25.7 | 0.00 | 0.00 | 0.00 | 41 | 1007.0 |
| 20260505112402 | 10 | 327 | 11.3 | 25.7 | 0.00 | 0.00 | 0.00 | 41 | 1006.8 |
| 20260505112123 | 11 | 233 | 12.9 | 19.3 | 0.00 | 0.00 | 0.00 | 41 | 1006.9 |
| 20260505111403 | 10 | 323 | 9.7 | 22.5 | 0.00 | 0.00 | 0.00 | 42 | 1006.8 |
| 20260505110902 | 10 | 307 | 12.9 | 24.1 | 0.00 | 0.00 | 0.00 | 42 | 1006.8 |
| 20260505110402 | 11 | 306 | 14.5 | 25.7 | 0.00 | 0.00 | 0.00 | 42 | 1006.8 |
| 20260505101903 | 10 | 0 | 14.5 | 20.9 | 0.00 | 0.00 | 0.00 | 49 | 1006.5 |
| 20260505101403 | 10 | 331 | 8.0 | 19.3 | 0.00 | 0.00 | 0.00 | 52 | 1006.6 |
| 20260505100901 | 10 | 0 | 9.7 | 24.1 | 0.00 | 0.00 | 0.00 | 51 | 1006.5 |
| 20260505100402 | 10 | 3 | 12.9 | 24.1 | 0.00 | 0.00 | 0.00 | 54 | 1006.5 |
| 20260505095901 | 10 | 316 | 12.9 | 24.1 | 0.00 | 0.00 | 0.00 | 53 | 1006.4 |
| 20260505095402 | 10 | 6 | 9.7 | 24.1 | 0.00 | 0.00 | 0.00 | 53 | 1006.4 |
| 20260505095123 | 10 | 279 | 11.3 | 24.1 | 0.00 | 0.00 | 0.00 | 55 | 1006.3 |
| 20260505094403 | 9 | 298 | 14.5 | 24.1 | 0.00 | 0.00 | 0.00 | 54 | 1006.4 |
| 20260505093903 | 9 | 293 | 16.1 | 25.7 | 0.00 | 0.00 | 0.00 | 54 | 1006.4 |
| 20260505093402 | 9 | 283 | 17.7 | 25.7 | 0.00 | 0.00 | 0.00 | 55 | 1006.4 |
| 20260505092901 | 9 | 323 | 17.7 | 25.7 | 0.00 | 0.00 | 0.00 | 57 | 1006.4 |
| 20260505092402 | 9 | 271 | 8.0 | 24.1 | 0.00 | 0.00 | 0.00 | 55 | 1006.4 |
| 20260505091902 | 9 | 286 | 16.1 | 27.4 | 0.00 | 0.00 | 0.00 | 56 | 1006.3 |
| 20260505091402 | 9 | 321 | 19.3 | 27.4 | 0.00 | 0.00 | 0.00 | 56 | 1006.3 |
| 20260505090903 | 10 | 286 | 9.7 | 20.9 | 0.00 | 0.00 | 0.00 | 56 | 1006.3 |
| 20260505090403 | 9 | 347 | 9.7 | 20.9 | 0.00 | 0.00 | 0.00 | 61 | 1006.2 |
| 20260505085903 | 8 | 310 | 12.9 | 27.4 | 0.00 | 0.00 | 0.00 | 60 | 1006.3 |
| 20260505085622 | 8 | 278 | 12.9 | 27.4 | 0.00 | 0.00 | 0.00 | 60 | 1006.2 |
| 20260505085121 | 8 | 306 | 8.0 | 22.5 | 0.00 | 0.00 | 0.00 | 60 | 1006.1 |
| 20260505084403 | 8 | 275 | 16.1 | 24.1 | 0.00 | 0.00 | 0.00 | 60 | 1006.1 |
| 20260505083903 | 8 | 316 | 12.9 | 25.7 | 0.00 | 0.00 | 0.00 | 61 | 1006.1 |
| 20260505083630 | 8 | 303 | 16.1 | 25.7 | 0.00 | 0.00 | 0.00 | 60 | 1006.1 |
| 20260505082903 | 8 | 296 | 14.5 | 25.7 | 0.00 | 0.00 | 0.00 | 62 | 1006.1 |
| 20260505082403 | 8 | 324 | 17.7 | 25.7 | 0.00 | 0.00 | 0.00 | 62 | 1006.1 |
| 20260505081903 | 8 | 323 | 16.1 | 27.4 | 0.00 | 0.00 | 0.00 | 63 | 1006.0 |
| 20260505081403 | 8 | 293 | 19.3 | 27.4 | 0.00 | 0.00 | 0.00 | 62 | 1005.9 |
| 20260505081351 | 8 | 279 | 8.0 | 20.9 | 0.00 | 0.00 | 0.00 | 64 | 1005.8 |
| 20260505080621 | 8 | 298 | 14.5 | 27.4 | 0.00 | 0.00 | 0.00 | 63 | 1005.9 |
| 20260505075903 | 8 | 314 | 14.5 | 27.4 | 0.00 | 0.00 | 0.00 | 63 | 1005.7 |
| 20260505075404 | 8 | 296 | 11.3 | 22.5 | 0.00 | 0.00 | 0.00 | 65 | 1005.7 |
| 20260505074904 | 8 | 259 | 14.5 | 22.5 | 0.00 | 0.00 | 0.00 | 66 | 1005.7 |
| 20260505074404 | 8 | 316 | 9.7 | 22.5 | 0.00 | 0.00 | 0.00 | 67 | 1005.7 |
| 20260505073903 | 8 | 278 | 11.3 | 22.5 | 0.00 | 0.00 | 0.00 | 67 | 1005.7 |
| 20260505073620 | 7 | 303 | 9.7 | 20.9 | 0.00 | 0.00 | 0.00 | 68 | 1005.6 |
| 20260505072903 | 7 | 324 | 6.4 | 20.9 | 0.00 | 0.00 | 0.00 | 68 | 1005.6 |
| 20260505072404 | 8 | 300 | 11.3 | 20.9 | 0.00 | 0.00 | 0.00 | 67 | 1005.6 |
| 20260505072127 | 8 | 285 | 11.3 | 20.9 | 0.00 | 0.00 | 0.00 | 67 | 1005.5 |
| 20260505071403 | 8 | 298 | 9.7 | 14.5 | 0.00 | 0.00 | 0.00 | 72 | 1005.4 |
| 20260505070904 | 7 | 337 | 3.2 | 14.5 | 0.00 | 0.00 | 0.00 | 70 | 1005.4 |
| 20260505070403 | 7 | 306 | 6.4 | 14.5 | 0.00 | 0.00 | 0.00 | 71 | 1005.4 |
| 20260505065903 | 7 | 307 | 8.0 | 14.5 | 0.00 | 0.00 | 0.00 | 70 | 1005.3 |
| 20260505065402 | 7 | 303 | 6.4 | 19.3 | 0.00 | 0.00 | 0.00 | 70 | 1005.3 |
| 20260505065126 | 7 | 11 | 6.4 | 19.3 | 0.00 | 0.00 | 0.00 | 70 | 1005.3 |
| 20260505064403 | 7 | 285 | 8.0 | 16.1 | 0.00 | 0.00 | 0.00 | 72 | 1005.2 |
| 20260505063903 | 7 | 296 | 4.8 | 17.7 | 0.00 | 0.00 | 0.00 | 72 | 1005.2 |
| 20260505063404 | 7 | 323 | 8.0 | 20.9 | 0.00 | 0.00 | 0.00 | 72 | 1005.2 |
| 20260505062903 | 7 | 289 | 8.0 | 20.9 | 0.00 | 0.00 | 0.00 | 73 | 1005.1 |
| 20260505062403 | 7 | 321 | 11.3 | 20.9 | 0.00 | 0.00 | 0.00 | 71 | 1005.1 |
| 20260505061904 | 7 | 326 | 6.4 | 16.1 | 0.00 | 0.00 | 0.00 | 71 | 1005.0 |
| 20260505061404 | 7 | 341 | 6.4 | 17.7 | 0.00 | 0.00 | 0.00 | 73 | 1005.0 |
| 20260505060903 | 7 | 327 | 6.4 | 17.7 | 0.00 | 0.00 | 0.00 | 74 | 1005.0 |
| 20260505060404 | 7 | 329 | 9.7 | 14.5 | 0.00 | 0.00 | 0.00 | 76 | 1004.9 |
| 20260505055904 | 7 | 295 | 3.2 | 16.1 | 0.00 | 0.00 | 0.00 | 76 | 1004.9 |
| 20260505055625 | 7 | 354 | 9.7 | 19.3 | 0.00 | 0.00 | 0.00 | 76 | 1004.8 |
| 20260505054904 | 7 | 285 | 14.5 | 19.3 | 0.00 | 0.00 | 0.00 | 75 | 1004.6 |
| 20260505054404 | 7 | 290 | 9.7 | 16.1 | 0.00 | 0.00 | 0.00 | 74 | 1004.6 |
| 20260505053903 | 7 | 279 | 9.7 | 16.1 | 0.00 | 0.00 | 0.00 | 75 | 1004.5 |
| 20260505053404 | 7 | 298 | 6.4 | 16.1 | 0.00 | 0.00 | 0.00 | 74 | 1004.4 |
| 20260505052903 | 7 | 317 | 12.9 | 16.1 | 0.00 | 0.00 | 0.00 | 74 | 1004.3 |
| 20260505052851 | 7 | 276 | 6.4 | 19.3 | 0.00 | 0.00 | 0.00 | 74 | 1004.3 |
| 20260505051903 | 7 | 336 | 6.4 | 19.3 | 0.00 | 0.00 | 0.00 | 74 | 1004.2 |
| 20260505051403 | 7 | 323 | 9.7 | 17.7 | 0.00 | 0.00 | 0.00 | 74 | 1004.2 |
| 20260505050903 | 7 | 351 | 9.7 | 19.3 | 0.00 | 0.00 | 0.00 | 73 | 1004.1 |
| 20260505050403 | 7 | 298 | 11.3 | 22.5 | 0.00 | 0.00 | 0.00 | 73 | 1004.0 |
| 20260505041403 | 8 | 283 | 12.9 | 20.9 | 0.00 | 0.00 | 0.00 | 70 | 1003.6 |
| 20260505041127 | 8 | 330 | 14.5 | 19.3 | 0.00 | 0.00 | 0.00 | 76 | 1003.6 |
| 20260505040403 | 8 | 303 | 4.8 | 27.4 | 0.00 | 0.00 | 0.00 | 76 | 1003.6 |
| 20260505040058 | 8 | 302 | 6.4 | 27.4 | 0.00 | 0.00 | 0.00 | 76 | 1003.5 |
| 20260505034903 | 8 | 290 | 11.3 | 22.5 | 0.00 | 0.00 | 0.00 | 76 | 1003.4 |
| 20260505034402 | 8 | 289 | 11.3 | 22.5 | 0.00 | 0.00 | 0.00 | 76 | 1003.3 |
| 20260505033904 | 8 | 307 | 11.3 | 25.7 | 0.00 | 0.00 | 0.00 | 76 | 1003.3 |
| 20260505033404 | 8 | 298 | 8.0 | 25.7 | 0.00 | 0.00 | 0.00 | 76 | 1003.2 |
| 20260505032904 | 8 | 306 | 11.3 | 27.4 | 0.00 | 0.00 | 0.00 | 76 | 1003.2 |
| 20260505032403 | 8 | 295 | 11.3 | 27.4 | 0.00 | 0.00 | 0.00 | 75 | 1003.2 |
| 20260505031904 | 8 | 300 | 9.7 | 19.3 | 0.00 | 0.00 | 0.00 | 75 | 1003.1 |
| 20260505031628 | 8 | 274 | 11.3 | 24.1 | 0.00 | 0.00 | 0.00 | 75 | 1003.1 |
| 20260505031120 | 8 | 237 | 17.7 | 24.1 | 0.00 | 0.00 | 0.00 | 75 | 1003.1 |
| 20260505030403 | 8 | 289 | 11.3 | 22.5 | 0.00 | 0.00 | 0.00 | 75 | 1003.1 |
| 20260505025903 | 8 | 281 | 11.3 | 17.7 | 0.00 | 0.00 | 0.00 | 74 | 1003.0 |
| 20260505025402 | 8 | 288 | 9.7 | 32.2 | 0.00 | 0.00 | 0.00 | 74 | 1002.9 |
| 20260505024903 | 8 | 285 | 17.7 | 32.2 | 0.00 | 0.00 | 0.00 | 73 | 1002.9 |
| 20260505024403 | 8 | 329 | 8.0 | 24.1 | 0.00 | 0.00 | 0.00 | 73 | 1002.9 |
| 20260505023902 | 8 | 252 | 11.3 | 24.1 | 0.00 | 0.00 | 0.00 | 73 | 1002.8 |
| 20260505023403 | 8 | 303 | 6.4 | 20.9 | 0.00 | 0.00 | 0.00 | 72 | 1002.8 |
| 20260505022901 | 8 | 282 | 9.7 | 19.3 | 0.00 | 0.00 | 0.00 | 72 | 1002.8 |
| 20260505022402 | 8 | 295 | 9.7 | 19.3 | 0.00 | 0.00 | 0.00 | 71 | 1002.8 |
| 20260505021902 | 8 | 290 | 8.0 | 19.3 | 0.00 | 0.00 | 0.00 | 71 | 1002.8 |
| 20260505021401 | 8 | 279 | 14.5 | 19.3 | 0.00 | 0.00 | 0.00 | 70 | 1002.8 |
| 20260505021124 | 8 | 274 | 11.3 | 19.3 | 0.00 | 0.00 | 0.00 | 70 | 1002.7 |
| 20260505020402 | 8 | 261 | 12.9 | 20.9 | 0.00 | 0.00 | 0.00 | 69 | 1002.7 |
| 20260505015902 | 8 | 276 | 9.7 | 20.9 | 0.00 | 0.00 | 0.00 | 69 | 1002.6 |